TimeCDT,TemperatureF,Dew PointF,Humidity,Sea Level PressureIn,VisibilityMPH,Wind Direction,Wind SpeedMPH,Gust SpeedMPH,PrecipitationIn,Events,Conditions,WindDirDegrees,DateUTC
12:52 AM,59.0,39.0,48,29.83,10.0,South,11.5,-,N/A,,Clear,170,2013-04-06 05:52:00
1:52 AM,57.9,39.9,51,29.81,10.0,South,16.1,-,N/A,,Clear,170,2013-04-06 06:52:00
2:52 AM,57.0,39.9,53,29.78,10.0,South,15.0,-,N/A,,Clear,170,2013-04-06 07:52:00
3:52 AM,57.0,39.9,53,29.74,10.0,South,16.1,23.0,N/A,,Clear,170,2013-04-06 08:52:00
4:52 AM,57.0,42.1,57,29.73,10.0,South,13.8,21.9,N/A,,Clear,190,2013-04-06 09:52:00
5:52 AM,57.0,43.0,59,29.74,10.0,South,11.5,19.6,N/A,,Partly Cloudy,190,2013-04-06 10:52:00
6:52 AM,57.9,43.0,58,29.74,10.0,South,11.5,-,N/A,,Mostly Cloudy,180,2013-04-06 11:52:00
7:52 AM,59.0,43.0,55,29.73,10.0,SSW,16.1,24.2,N/A,,Clear,200,2013-04-06 12:52:00
8:52 AM,59.0,45.0,60,29.73,10.0,South,16.1,23.0,N/A,,Clear,190,2013-04-06 13:52:00
9:52 AM,62.1,46.0,56,29.72,10.0,SSW,18.4,24.2,N/A,,Clear,200,2013-04-06 14:52:00
10:52 AM,64.9,46.0,50,29.70,9.0,SW,24.2,32.2,N/A,,Clear,220,2013-04-06 15:52:00
11:52 AM,68.0,46.9,47,29.70,10.0,SW,21.9,33.4,N/A,,Scattered Clouds,230,2013-04-06 16:52:00
12:52 PM,70.0,46.9,44,29.68,10.0,SW,23.0,32.2,N/A,,Clear,230,2013-04-06 17:52:00
1:52 PM,75.0,46.9,37,29.67,10.0,SW,23.0,29.9,N/A,,Partly Cloudy,230,2013-04-06 18:52:00
2:42 PM,75.2,46.4,36,29.67,10.0,West,12.7,23.0,N/A,,Partly Cloudy,270,2013-04-06 19:42:00
2:52 PM,77.0,46.9,34,29.65,10.0,West,19.6,25.3,N/A,,Partly Cloudy,270,2013-04-06 19:52:00
3:52 PM,77.0,42.1,29,29.66,10.0,WSW,16.1,28.8,N/A,,Clear,250,2013-04-06 20:52:00
4:52 PM,77.0,39.0,25,29.67,10.0,WNW,16.1,27.6,N/A,,Clear,290,2013-04-06 21:52:00
5:52 PM,75.9,41.0,29,29.70,10.0,WNW,15.0,23.0,N/A,,Clear,290,2013-04-06 22:52:00
6:52 PM,72.0,43.0,35,29.73,10.0,NNW,15.0,-,N/A,,Partly Cloudy,330,2013-04-06 23:52:00
7:52 PM,66.0,42.1,42,29.75,10.0,NNW,11.5,-,N/A,,Clear,340,2013-04-07 00:52:00
8:52 PM,60.1,41.0,49,29.78,10.0,NNW,3.5,-,N/A,,Clear,330,2013-04-07 01:52:00
9:52 PM,59.0,42.1,53,29.79,10.0,Calm,Calm,-,N/A,,Clear,0,2013-04-07 02:52:00
10:52 PM,54.0,42.1,64,29.81,9.0,Calm,Calm,-,N/A,,Clear,0,2013-04-07 03:52:00
11:52 PM,48.0,41.0,77,29.81,10.0,Calm,Calm,-,N/A,,Clear,0,2013-04-07 04:52:00